Time,TemperatureF,DewpointF,PressureIn,WindDirection,WindDirectionDegrees,WindSpeedMPH,WindSpeedGustMPH,Humidity,HourlyPrecipIn,Conditions,Clouds,dailyrainin,SoftwareType,DateUTC
2013-02-07 00:03:00,24.8,18.0,30.39,SW,224,0.0,0.0,76,0.00,,,0.00,weatherlink.com 1.10,2013-02-07 05:03:00,
2013-02-07 00:18:00,25.4,18.0,30.39,SW,224,0.0,0.0,74,0.00,,,0.00,weatherlink.com 1.10,2013-02-07 05:18:00,
2013-02-07 00:33:00,26.0,18.0,30.38,SW,224,0.0,0.0,72,0.00,,,0.00,weatherlink.com 1.10,2013-02-07 05:33:00,
2013-02-07 00:48:00,25.1,18.0,30.38,SW,224,0.0,0.0,74,0.00,,,0.00,weatherlink.com 1.10,2013-02-07 05:48:00,
2013-02-07 01:03:00,25.1,18.0,30.38,SW,224,0.0,0.0,74,0.00,,,0.00,weatherlink.com 1.10,2013-02-07 06:03:00,
2013-02-07 01:18:00,24.8,18.0,30.40,SW,224,0.0,0.0,75,0.00,,,0.00,weatherlink.com 1.10,2013-02-07 06:18:00,
2013-02-07 01:33:00,24.7,18.0,30.39,SW,224,0.0,0.0,75,0.00,,,0.00,weatherlink.com 1.10,2013-02-07 06:33:00,
2013-02-07 01:48:00,24.1,18.0,30.40,SW,224,0.0,0.0,76,0.00,,,0.00,weatherlink.com 1.10,2013-02-07 06:48:00,
2013-02-07 02:03:00,24.0,18.0,30.41,SW,224,0.0,0.0,77,0.00,,,0.00,weatherlink.com 1.10,2013-02-07 07:03:00,
2013-02-07 02:18:00,24.3,18.0,30.41,SW,224,0.0,0.0,76,0.00,,,0.00,weatherlink.com 1.10,2013-02-07 07:18:00,
2013-02-07 02:33:00,24.1,18.0,30.42,SW,224,0.0,0.0,76,0.00,,,0.00,weatherlink.com 1.10,2013-02-07 07:33:00,
2013-02-07 02:49:00,23.9,17.0,30.43,SW,224,0.0,0.0,76,0.00,,,0.00,weatherlink.com 1.10,2013-02-07 07:49:00,
2013-02-07 03:04:00,24.2,18.0,30.42,SW,224,0.0,0.0,76,0.00,,,0.00,weatherlink.com 1.10,2013-02-07 08:04:00,
2013-02-07 03:19:00,23.5,17.0,30.42,SW,224,0.0,0.0,77,0.00,,,0.00,weatherlink.com 1.10,2013-02-07 08:19:00,
2013-02-07 03:34:00,24.0,17.0,30.43,SW,224,0.0,0.0,76,0.00,,,0.00,weatherlink.com 1.10,2013-02-07 08:34:00,
2013-02-07 03:49:00,23.9,17.0,30.43,SW,224,0.0,0.0,76,0.00,,,0.00,weatherlink.com 1.10,2013-02-07 08:49:00,
2013-02-07 04:04:00,23.6,17.0,30.43,SW,224,0.0,0.0,76,0.00,,,0.00,weatherlink.com 1.10,2013-02-07 09:04:00,
2013-02-07 04:19:00,23.4,17.0,30.42,SW,224,0.0,0.0,77,0.00,,,0.00,weatherlink.com 1.10,2013-02-07 09:19:00,
2013-02-07 04:34:00,23.3,17.0,30.42,SW,224,0.0,0.0,78,0.00,,,0.00,weatherlink.com 1.10,2013-02-07 09:34:00,
2013-02-07 04:49:00,23.4,17.0,30.42,SW,224,0.0,0.0,77,0.00,,,0.00,weatherlink.com 1.10,2013-02-07 09:49:00,
2013-02-07 05:04:00,25.2,18.0,30.42,ENE,68,0.0,3.0,74,0.00,,,0.00,weatherlink.com 1.10,2013-02-07 10:04:00,
2013-02-07 05:19:00,25.6,18.0,30.43,ENE,63,0.0,2.0,74,0.00,,,0.00,weatherlink.com 1.10,2013-02-07 10:19:00,
2013-02-07 05:34:00,24.4,18.0,30.44,ENE,64,0.0,0.0,77,0.00,,,0.00,weatherlink.com 1.10,2013-02-07 10:34:00,
2013-02-07 05:49:00,24.1,19.0,30.44,ENE,65,0.0,0.0,80,0.00,,,0.00,weatherlink.com 1.10,2013-02-07 10:49:00,
2013-02-07 06:04:00,24.0,19.0,30.45,ENE,65,0.0,0.0,81,0.00,,,0.00,weatherlink.com 1.10,2013-02-07 11:04:00,
2013-02-07 06:19:00,24.1,19.0,30.45,ENE,65,0.0,0.0,82,0.00,,,0.00,weatherlink.com 1.10,2013-02-07 11:19:00,
2013-02-07 06:34:00,24.6,20.0,30.46,ENE,65,0.0,0.0,82,0.00,,,0.00,weatherlink.com 1.10,2013-02-07 11:34:00,
2013-02-07 06:49:00,24.8,20.0,30.47,ENE,65,0.0,0.0,82,0.00,,,0.00,weatherlink.com 1.10,2013-02-07 11:49:00,
2013-02-07 07:04:00,25.9,19.0,30.47,ENE,64,0.0,2.0,76,0.00,,,0.00,weatherlink.com 1.10,2013-02-07 12:04:00,
2013-02-07 07:19:00,26.3,19.0,30.48,ENE,67,0.0,2.0,73,0.00,,,0.00,weatherlink.com 1.10,2013-02-07 12:19:00,
2013-02-07 07:34:00,26.2,19.0,30.48,ENE,69,0.0,2.0,74,0.00,,,0.00,weatherlink.com 1.10,2013-02-07 12:34:00,
2013-02-07 07:49:00,26.3,19.0,30.48,ENE,67,0.0,2.0,73,0.00,,,0.00,weatherlink.com 1.10,2013-02-07 12:49:00,
2013-02-07 08:04:00,27.0,19.0,30.48,East,96,0.0,2.0,73,0.00,,,0.00,weatherlink.com 1.10,2013-02-07 13:04:00,
2013-02-07 08:19:00,27.4,19.0,30.49,ENE,73,2.0,3.0,71,0.00,,,0.00,weatherlink.com 1.10,2013-02-07 13:19:00,
2013-02-07 08:34:00,27.5,19.0,30.49,NE,55,0.0,3.0,71,0.00,,,0.00,weatherlink.com 1.10,2013-02-07 13:34:00,
2013-02-07 08:49:00,27.5,20.0,30.49,NNE,30,0.0,3.0,73,0.00,,,0.00,weatherlink.com 1.10,2013-02-07 13:49:00,
2013-02-07 09:04:00,28.2,20.0,30.49,SSE,153,0.0,3.0,71,0.00,,,0.00,weatherlink.com 1.10,2013-02-07 14:04:00,
2013-02-07 09:19:00,29.0,19.0,30.50,North,360,0.0,2.0,67,0.00,,,0.00,weatherlink.com 1.10,2013-02-07 14:19:00,
2013-02-07 09:34:00,29.0,19.0,30.50,SE,139,0.0,5.0,67,0.00,,,0.00,weatherlink.com 1.10,2013-02-07 14:34:00,
2013-02-07 09:49:00,29.6,20.0,30.50,East,88,0.0,2.0,67,0.00,,,0.00,weatherlink.com 1.10,2013-02-07 14:49:00,
2013-02-07 10:05:00,29.6,19.0,30.49,West,273,0.0,4.0,66,0.00,,,0.00,weatherlink.com 1.10,2013-02-07 15:05:00,
2013-02-07 10:20:00,30.3,19.0,30.49,North,355,1.0,4.0,63,0.00,,,0.00,weatherlink.com 1.10,2013-02-07 15:20:00,
2013-02-07 10:35:00,30.7,19.0,30.49,ENE,70,0.0,6.0,61,0.00,,,0.00,weatherlink.com 1.10,2013-02-07 15:35:00,
2013-02-07 10:50:00,31.2,18.0,30.49,NW,319,1.0,4.0,58,0.00,,,0.00,weatherlink.com 1.10,2013-02-07 15:50:00,
2013-02-07 11:05:00,31.3,17.0,30.49,NE,46,0.0,6.0,56,0.00,,,0.00,weatherlink.com 1.10,2013-02-07 16:05:00,
2013-02-07 11:20:00,31.9,18.0,30.48,North,11,0.0,4.0,57,0.00,,,0.00,weatherlink.com 1.10,2013-02-07 16:20:00,
2013-02-07 11:35:00,32.1,18.0,30.47,WSW,251,2.0,6.0,57,0.00,,,0.00,weatherlink.com 1.10,2013-02-07 16:35:00,
2013-02-07 11:50:00,32.4,17.0,30.46,North,11,2.0,4.0,54,0.00,,,0.00,weatherlink.com 1.10,2013-02-07 16:50:00,
2013-02-07 12:05:00,33.1,17.0,30.46,West,277,1.0,3.0,53,0.00,,,0.00,weatherlink.com 1.10,2013-02-07 17:05:00,
2013-02-07 12:20:00,32.9,17.0,30.45,WNW,286,0.0,4.0,53,0.00,,,0.00,weatherlink.com 1.10,2013-02-07 17:20:00,
2013-02-07 12:35:00,33.4,17.0,30.44,ENE,58,0.0,5.0,52,0.00,,,0.00,weatherlink.com 1.10,2013-02-07 17:35:00,
2013-02-07 12:50:00,33.8,17.0,30.44,North,355,1.0,5.0,50,0.00,,,0.00,weatherlink.com 1.10,2013-02-07 17:50:00,
2013-02-07 13:05:00,33.7,17.0,30.42,ENE,69,0.0,6.0,51,0.00,,,0.00,weatherlink.com 1.10,2013-02-07 18:05:00,
2013-02-07 13:20:00,34.3,18.0,30.42,SSE,160,1.0,2.0,51,0.00,,,0.00,weatherlink.com 1.10,2013-02-07 18:20:00,
2013-02-07 13:35:00,34.1,17.0,30.41,West,262,0.0,6.0,49,0.00,,,0.00,weatherlink.com 1.10,2013-02-07 18:35:00,
2013-02-07 13:50:00,34.4,17.0,30.41,WSW,238,1.0,5.0,50,0.00,,,0.00,weatherlink.com 1.10,2013-02-07 18:50:00,
2013-02-07 14:05:00,34.5,16.0,30.40,North,9,0.0,2.0,48,0.00,,,0.00,weatherlink.com 1.10,2013-02-07 19:05:00,
2013-02-07 14:20:00,34.6,17.0,30.40,South,182,2.0,3.0,48,0.00,,,0.00,weatherlink.com 1.10,2013-02-07 19:20:00,
2013-02-07 14:35:00,34.4,14.0,30.39,NE,55,1.0,4.0,44,0.00,,,0.00,weatherlink.com 1.10,2013-02-07 19:35:00,
2013-02-07 14:50:00,34.9,15.0,30.39,ENE,57,1.0,3.0,44,0.00,,,0.00,weatherlink.com 1.10,2013-02-07 19:50:00,
2013-02-07 15:05:00,34.7,15.0,30.39,NNW,343,1.0,3.0,44,0.00,,,0.00,weatherlink.com 1.10,2013-02-07 20:05:00,
2013-02-07 15:20:00,34.9,14.0,30.38,ENE,65,1.0,3.0,43,0.00,,,0.00,weatherlink.com 1.10,2013-02-07 20:20:00,
2013-02-07 15:35:00,34.7,15.0,30.38,West,273,1.0,5.0,44,0.00,,,0.00,weatherlink.com 1.10,2013-02-07 20:35:00,
2013-02-07 15:50:00,34.8,15.0,30.38,West,275,0.0,3.0,45,0.00,,,0.00,weatherlink.com 1.10,2013-02-07 20:50:00,
2013-02-07 16:05:00,34.6,16.0,30.37,WSW,257,0.0,3.0,46,0.00,,,0.00,weatherlink.com 1.10,2013-02-07 21:05:00,
2013-02-07 16:20:00,34.4,16.0,30.37,SW,217,0.0,2.0,47,0.00,,,0.00,weatherlink.com 1.10,2013-02-07 21:20:00,
2013-02-07 16:35:00,34.3,17.0,30.37,NNW,329,1.0,3.0,49,0.00,,,0.00,weatherlink.com 1.10,2013-02-07 21:35:00,
2013-02-07 16:50:00,34.1,17.0,30.36,NW,319,0.0,3.0,49,0.00,,,0.00,weatherlink.com 1.10,2013-02-07 21:50:00,
2013-02-07 17:05:00,33.9,17.0,30.36,NW,314,0.0,3.0,50,0.00,,,0.00,weatherlink.com 1.10,2013-02-07 22:05:00,
2013-02-07 17:20:00,33.8,17.0,30.36,SW,229,1.0,3.0,50,0.00,,,0.00,weatherlink.com 1.10,2013-02-07 22:20:00,
2013-02-07 17:35:00,33.7,17.0,30.36,NW,308,0.0,2.0,50,0.00,,,0.00,weatherlink.com 1.10,2013-02-07 22:35:00,
2013-02-07 17:50:00,33.7,17.0,30.36,WNW,303,0.0,2.0,50,0.00,,,0.00,weatherlink.com 1.10,2013-02-07 22:50:00,
2013-02-07 18:05:00,33.6,17.0,30.37,NW,310,1.0,2.0,51,0.00,,,0.00,weatherlink.com 1.10,2013-02-07 23:05:00,
2013-02-07 18:20:00,33.6,18.0,30.38,NW,316,0.0,4.0,52,0.00,,,0.00,weatherlink.com 1.10,2013-02-07 23:20:00,
2013-02-07 18:35:00,33.5,18.0,30.38,East,81,1.0,4.0,53,0.00,,,0.00,weatherlink.com 1.10,2013-02-07 23:35:00,
2013-02-07 18:50:00,33.3,18.0,30.38,WSW,257,1.0,3.0,54,0.00,,,0.00,weatherlink.com 1.10,2013-02-07 23:50:00,
2013-02-07 19:05:00,33.2,18.0,30.37,ESE,116,0.0,3.0,55,0.00,,,0.00,weatherlink.com 1.10,2013-02-08 00:05:00,
2013-02-07 19:20:00,33.0,18.0,30.37,WNW,295,2.0,5.0,55,0.00,,,0.00,weatherlink.com 1.10,2013-02-08 00:20:00,
2013-02-07 19:35:00,32.9,18.0,30.37,North,360,0.0,3.0,55,0.00,,,0.00,weatherlink.com 1.10,2013-02-08 00:35:00,
2013-02-07 19:50:00,32.8,19.0,30.37,SE,142,0.0,3.0,56,0.00,,,0.00,weatherlink.com 1.10,2013-02-08 00:50:00,
2013-02-07 20:05:00,32.7,19.0,30.37,SW,235,1.0,3.0,57,0.00,,,0.00,weatherlink.com 1.10,2013-02-08 01:05:00,
2013-02-07 20:20:00,32.6,19.0,30.37,SSW,209,0.0,4.0,58,0.00,,,0.00,weatherlink.com 1.10,2013-02-08 01:20:00,
2013-02-07 20:35:00,32.4,19.0,30.37,NE,38,0.0,7.0,59,0.00,,,0.00,weatherlink.com 1.10,2013-02-08 01:35:00,
2013-02-07 20:50:00,32.3,20.0,30.37,NNW,348,0.0,4.0,61,0.00,,,0.00,weatherlink.com 1.10,2013-02-08 01:50:00,
2013-02-07 21:05:00,32.3,22.0,30.37,NNW,341,0.0,4.0,65,0.00,,,0.00,weatherlink.com 1.10,2013-02-08 02:05:00,
2013-02-07 21:20:00,32.2,23.0,30.36,SSW,208,3.0,5.0,69,0.00,,,0.00,weatherlink.com 1.10,2013-02-08 02:20:00,
2013-02-07 21:35:00,32.0,23.0,30.36,West,275,1.0,7.0,70,0.00,,,0.00,weatherlink.com 1.10,2013-02-08 02:35:00,
2013-02-07 21:50:00,31.8,23.0,30.35,WNW,300,2.0,7.0,70,0.00,,,0.00,weatherlink.com 1.10,2013-02-08 02:50:00,
2013-02-07 22:05:00,31.6,23.0,30.34,West,263,1.0,4.0,70,0.00,,,0.00,weatherlink.com 1.10,2013-02-08 03:05:00,
2013-02-07 22:21:00,31.2,23.0,30.33,East,94,5.0,7.0,71,0.00,,,0.00,weatherlink.com 1.10,2013-02-08 03:21:00,
2013-02-07 22:36:00,31.0,22.0,30.32,NE,49,0.0,8.0,70,0.00,,,0.00,weatherlink.com 1.10,2013-02-08 03:36:00,
2013-02-07 22:51:00,30.8,22.0,30.31,SW,236,0.0,3.0,71,0.00,,,0.00,weatherlink.com 1.10,2013-02-08 03:51:00,
2013-02-07 23:06:00,30.8,21.0,30.30,SE,136,0.0,5.0,68,0.00,,,0.00,weatherlink.com 1.10,2013-02-08 04:06:00,
2013-02-07 23:21:00,30.8,22.0,30.30,East,80,2.0,4.0,69,0.00,,,0.00,weatherlink.com 1.10,2013-02-08 04:21:00,
2013-02-07 23:36:00,30.8,22.0,30.30,East,90,0.0,3.0,69,0.00,,,0.00,weatherlink.com 1.10,2013-02-08 04:36:00,
2013-02-07 23:51:00,30.8,21.0,30.29,ENE,59,2.0,5.0,68,0.00,,,0.00,weatherlink.com 1.10,2013-02-08 04:51:00,